• Em Portugal
  • Lista de países
  • Para 7 dias
  • Temperatura da água
  • Mapas de satélite
  • Mapa do tempo
  • Widgets de tempo
  • user-avatar
    Iniciar Sessão

    Previsão horária em Malanje

    Hoje, 24 Setembro, Segunda-feira

    Tempo Temperatura Precipitação Vento Pressão Humidade
    00:00 +25°C° 0 mm 3 m/s 664 mmHg 62%
    01:00 +24°C° 0 mm 3 m/s 664 mmHg 65%
    02:00 +22°C° 0.1 mm 3 m/s 664 mmHg 70%
    03:00 +21°C° 0.1 mm 3 m/s 663 mmHg 75%
    04:00 +20°C° 0.1 mm 3 m/s 663 mmHg 79%
    05:00 +20°C° 0 mm 3 m/s 664 mmHg 79%
    06:00 +20°C° 0 mm 3 m/s 664 mmHg 79%
    07:00 +20°C° 0 mm 3 m/s 665 mmHg 78%
    08:00 +24°C° 0 mm 3 m/s 665 mmHg 68%
    09:00 +26°C° 0 mm 3 m/s 666 mmHg 58%
    10:00 +29°C° 0 mm 3 m/s 667 mmHg 48%
    11:00 +31°C° 0 mm 2 m/s 666 mmHg 42%
    12:00 +34°C° 0 mm 2 m/s 666 mmHg 36%
    13:00 +36°C° 0 mm 2 m/s 665 mmHg 30%
    14:00 +35°C° 0 mm 2 m/s 665 mmHg 30%
    15:00 +35°C° 0 mm 2 m/s 664 mmHg 30%
    16:00 +34°C° 0 mm 2 m/s 664 mmHg 30%
    17:00 +31°C° 0 mm 2 m/s 664 mmHg 34%
    18:00 +30°C° 0 mm 2 m/s 664 mmHg 38%
    19:00 +28°C° 0 mm 2 m/s 664 mmHg 42%
    20:00 +27°C° 0 mm 2 m/s 665 mmHg 46%
    21:00 +26°C° 0 mm 3 m/s 665 mmHg 51%
    22:00 +25°C° 0 mm 3 m/s 666 mmHg 55%
    23:00 +24°C° 0 mm 3 m/s 665 mmHg 60%

    Amanhã, 25 Setembro, Terça-feira

    Tempo Temperatura Precipitação Vento Pressão Humidade
    00:00 +22°C° 0 mm 3 m/s 665 mmHg 65%
    01:00 +21°C° 0 mm 2 m/s 665 mmHg 71%
    02:00 +21°C° 0 mm 3 m/s 665 mmHg 74%
    03:00 +20°C° 0 mm 3 m/s 665 mmHg 77%
    04:00 +20°C° 0 mm 3 m/s 664 mmHg 81%
    05:00 +20°C° 0.1 mm 3 m/s 665 mmHg 79%
    06:00 +20°C° 0.1 mm 3 m/s 665 mmHg 78%
    07:00 +20°C° 0.1 mm 3 m/s 665 mmHg 76%
    08:00 +24°C° 0.1 mm 2 m/s 666 mmHg 65%
    09:00 +27°C° 0.1 mm 2 m/s 667 mmHg 53%
    10:00 +30°C° 0.1 mm 2 m/s 668 mmHg 41%
    11:00 +34°C° 0 mm 2 m/s 667 mmHg 35%
    12:00 +36°C° 0 mm 2 m/s 667 mmHg 29%
    13:00 +39°C° 0 mm 1 m/s 666 mmHg 23%
    14:00 +36°C° 0 mm 1 m/s 665 mmHg 25%
    15:00 +34°C° 0 mm 1 m/s 664 mmHg 27%
    16:00 +33°C° 0 mm 1 m/s 664 mmHg 30%
    17:00 +31°C° 0.2 mm 2 m/s 664 mmHg 34%
    18:00 +30°C° 0.2 mm 2 m/s 664 mmHg 39%
    19:00 +28°C° 0.2 mm 2 m/s 664 mmHg 44%
    20:00 +27°C° 0 mm 2 m/s 665 mmHg 47%
    21:00 +27°C° 0 mm 3 m/s 665 mmHg 49%
    22:00 +26°C° 0 mm 3 m/s 665 mmHg 52%
    23:00 +25°C° 0 mm 3 m/s 665 mmHg 57%

    Depois de amanhã, 26 Setembro, Quarta-feira

    Tempo Temperatura Precipitação Vento Pressão Humidade
    00:00 +24°C° 0 mm 2 m/s 665 mmHg 62%
    01:00 +23°C° 0 mm 2 m/s 664 mmHg 68%
    02:00 +21°C° 0.1 mm 2 m/s 664 mmHg 71%
    03:00 +21°C° 0.1 mm 2 m/s 664 mmHg 74%
    04:00 +20°C° 0.1 mm 2 m/s 664 mmHg 77%
    05:00 +20°C° 0.1 mm 2 m/s 665 mmHg 77%
    06:00 +21°C° 0.1 mm 2 m/s 665 mmHg 76%
    07:00 +21°C° 0.1 mm 2 m/s 666 mmHg 76%
    08:00 +24°C° 0.2 mm 2 m/s 666 mmHg 65%
    09:00 +27°C° 0.2 mm 2 m/s 667 mmHg 55%
    10:00 +30°C° 0.2 mm 3 m/s 667 mmHg 45%
    11:00 +32°C° 0 mm 2 m/s 667 mmHg 39%
    12:00 +35°C° 0 mm 2 m/s 666 mmHg 34%
    13:00 +37°C° 0 mm 2 m/s 665 mmHg 28%
    14:00 +36°C° 0.1 mm 2 m/s 665 mmHg 30%
    15:00 +34°C° 0.1 mm 2 m/s 664 mmHg 32%
    16:00 +32°C° 0.1 mm 2 m/s 664 mmHg 34%
    17:00 +31°C° 0.1 mm 2 m/s 664 mmHg 39%
    18:00 +29°C° 0.1 mm 2 m/s 664 mmHg 44%
    19:00 +27°C° 0.1 mm 2 m/s 664 mmHg 49%
    20:00 +26°C° 0.3 mm 2 m/s 664 mmHg 53%
    21:00 +25°C° 0.3 mm 2 m/s 665 mmHg 57%
    22:00 +25°C° 0.3 mm 2 m/s 665 mmHg 60%
    23:00 +24°C° 0.1 mm 2 m/s 664 mmHg 64%

    27 Setembro, Quinta-feira

    Tempo Temperatura Precipitação Vento Pressão Humidade
    00:00 +23°C° 0.1 mm 2 m/s 664 mmHg 68%
    01:00 +23°C° 0.1 mm 2 m/s 664 mmHg 73%
    02:00 +21°C° 0.5 mm 2 m/s 663 mmHg 77%
    03:00 +20°C° 0.5 mm 2 m/s 663 mmHg 81%
    04:00 +20°C° 0.5 mm 2 m/s 663 mmHg 86%
    05:00 +20°C° 0.7 mm 2 m/s 664 mmHg 85%
    06:00 +20°C° 0.7 mm 2 m/s 664 mmHg 85%
    07:00 +20°C° 0.7 mm 2 m/s 665 mmHg 85%
    08:00 +23°C° 0.1 mm 2 m/s 665 mmHg 75%
    09:00 +25°C° 0.1 mm 2 m/s 666 mmHg 66%
    10:00 +28°C° 0.1 mm 2 m/s 666 mmHg 56%
    11:00 +30°C° 0 mm 2 m/s 666 mmHg 48%
    12:00 +34°C° 0 mm 2 m/s 665 mmHg 40%
    13:00 +36°C° 0 mm 2 m/s 665 mmHg 32%
    14:00 +36°C° 0 mm 2 m/s 664 mmHg 32%
    15:00 +34°C° 0 mm 1 m/s 664 mmHg 31%
    16:00 +34°C° 0 mm 1 m/s 663 mmHg 31%
    17:00 +32°C° 0 mm 2 m/s 664 mmHg 36%
    18:00 +30°C° 0 mm 2 m/s 664 mmHg 40%
    19:00 +28°C° 0 mm 2 m/s 664 mmHg 45%
    20:00 +27°C° 0.6 mm 2 m/s 664 mmHg 51%
    21:00 +26°C° 0.6 mm 2 m/s 665 mmHg 57%
    22:00 +25°C° 0.6 mm 2 m/s 665 mmHg 63%
    23:00 +24°C° 0.3 mm 2 m/s 665 mmHg 67%

    28 Setembro, Sexta-feira

    Tempo Temperatura Precipitação Vento Pressão Humidade
    00:00 +24°C° 0.3 mm 2 m/s 664 mmHg 72%
    01:00 +22°C° 0.3 mm 3 m/s 664 mmHg 76%
    02:00 +21°C° 0.2 mm 2 m/s 663 mmHg 79%
    03:00 +21°C° 0.2 mm 2 m/s 663 mmHg 83%
    04:00 +20°C° 0.2 mm 2 m/s 663 mmHg 86%
    05:00 +20°C° 0.3 mm 2 m/s 664 mmHg 85%
    06:00 +20°C° 0.3 mm 2 m/s 664 mmHg 84%
    07:00 +20°C° 0.3 mm 2 m/s 665 mmHg 84%
    08:00 +24°C° 0 mm 2 m/s 665 mmHg 73%
    09:00 +26°C° 0 mm 2 m/s 666 mmHg 62%
    10:00 +29°C° 0 mm 2 m/s 666 mmHg 51%
    11:00 +31°C° 0 mm 2 m/s 666 mmHg 44%
    12:00 +34°C° 0 mm 2 m/s 665 mmHg 38%
    13:00 +35°C° 0 mm 1 m/s 665 mmHg 31%
    14:00 +35°C° 0 mm 1 m/s 664 mmHg 30%
    15:00 +35°C° 0 mm 1 m/s 664 mmHg 28%
    16:00 +35°C° 0 mm 1 m/s 663 mmHg 27%
    17:00 +33°C° 0 mm 1 m/s 664 mmHg 31%
    18:00 +31°C° 0 mm 1 m/s 664 mmHg 36%
    19:00 +29°C° 0 mm 1 m/s 664 mmHg 40%
    20:00 +28°C° 0 mm 2 m/s 664 mmHg 45%
    21:00 +27°C° 0 mm 2 m/s 664 mmHg 49%
    22:00 +26°C° 0 mm 3 m/s 665 mmHg 54%
    23:00 +26°C° 0.3 mm 2 m/s 664 mmHg 59%

    29 Setembro, Sábado

    Tempo Temperatura Precipitação Vento Pressão Humidade
    00:00 +25°C° 0.3 mm 2 m/s 664 mmHg 65%
    01:00 +24°C° 0.3 mm 2 m/s 664 mmHg 70%
    02:00 +23°C° 0 mm 2 m/s 664 mmHg 73%
    03:00 +23°C° 0 mm 2 m/s 664 mmHg 76%
    04:00 +22°C° 0 mm 1 m/s 664 mmHg 79%
    05:00 +22°C° 0.4 mm 1 m/s 665 mmHg 79%
    06:00 +22°C° 0.4 mm 1 m/s 665 mmHg 79%
    07:00 +23°C° 0.4 mm 1 m/s 665 mmHg 79%
    08:00 +25°C° 0 mm 1 m/s 666 mmHg 69%
    09:00 +27°C° 0 mm 1 m/s 666 mmHg 59%
    10:00 +30°C° 0 mm 2 m/s 667 mmHg 49%
    11:00 +32°C° 0 mm 1 m/s 666 mmHg 42%
    12:00 +34°C° 0 mm 1 m/s 666 mmHg 35%
    13:00 +36°C° 0 mm 1 m/s 666 mmHg 28%
    14:00 +35°C° 0 mm 1 m/s 665 mmHg 31%
    15:00 +33°C° 0 mm 1 m/s 664 mmHg 34%
    16:00 +32°C° 0 mm 2 m/s 664 mmHg 36%
    17:00 +31°C° 0.1 mm 2 m/s 664 mmHg 42%
    18:00 +29°C° 0.1 mm 2 m/s 664 mmHg 47%
    19:00 +28°C° 0.1 mm 3 m/s 664 mmHg 53%
    20:00 +26°C° 0.7 mm 2 m/s 665 mmHg 59%
    21:00 +25°C° 0.7 mm 2 m/s 665 mmHg 65%
    22:00 +24°C° 0.7 mm 1 m/s 665 mmHg 71%
    23:00 +24°C° 0.9 mm 2 m/s 665 mmHg 74%
    Mostrar mais

    3.3.7123123